owner,sensor,date,latitude,longitude,vertical_datum,mass_concentration_of_oxygen_in_sea_water,qcFlag 
SCCF RECON,ioos:station:SCCF:56:1,2017-05-01T00:00:00Z,26.4645,-82.1044,1.711,6.02,1111122 
SCCF RECON,ioos:station:SCCF:56:1,2017-05-01T01:00:00Z,26.4645,-82.1044,1.57,5.42,1111122 
SCCF RECON,ioos:station:SCCF:56:1,2017-05-01T02:00:00Z,26.4645,-82.1044,1.427,4.87,1111122 
SCCF RECON,ioos:station:SCCF:56:1,2017-05-01T03:00:00Z,26.4645,-82.1044,1.292,4.38,1111122 
SCCF RECON,ioos:station:SCCF:56:1,2017-05-01T04:00:00Z,26.4645,-82.1044,1.185,4.12,1111122 
SCCF RECON,ioos:station:SCCF:56:1,2017-05-01T05:00:00Z,26.4645,-82.1044,1.14,3.7,1111122 
SCCF RECON,ioos:station:SCCF:56:1,2017-05-01T06:00:00Z,26.4645,-82.1044,1.25,4.6,1111122 
SCCF RECON,ioos:station:SCCF:56:1,2017-05-01T07:00:00Z,26.4645,-82.1044,1.41,4.65,1111122 
SCCF RECON,ioos:station:SCCF:56:1,2017-05-01T08:00:00Z,26.4645,-82.1044,1.53,4.77,1111122 
SCCF RECON,ioos:station:SCCF:56:1,2017-05-01T09:00:00Z,26.4645,-82.1044,1.633,4.72,1111122 
SCCF RECON,ioos:station:SCCF:56:1,2017-05-01T10:00:00Z,26.4645,-82.1044,1.705,4.6,1111122 
SCCF RECON,ioos:station:SCCF:56:1,2017-05-01T11:00:00Z,26.4645,-82.1044,1.73,4.98,1111122 
SCCF RECON,ioos:station:SCCF:56:1,2017-05-01T12:00:00Z,26.4645,-82.1044,1.76,5.15,1111122 
SCCF RECON,ioos:station:SCCF:56:1,2017-05-01T13:00:00Z,26.4645,-82.1044,1.762,4.81,1111122 
SCCF RECON,ioos:station:SCCF:56:1,2017-05-01T14:00:00Z,26.4645,-82.1044,1.7,4.5,1111122 
SCCF RECON,ioos:station:SCCF:56:1,2017-05-01T15:00:00Z,26.4645,-82.1044,1.663,4.59,1111122 
SCCF RECON,ioos:station:SCCF:56:1,2017-05-01T16:00:00Z,26.4645,-82.1044,1.658,4.58,1111122 
SCCF RECON,ioos:station:SCCF:56:1,2017-05-01T17:00:00Z,26.4645,-82.1044,1.65,4.94,1111122 
SCCF RECON,ioos:station:SCCF:56:1,2017-05-01T18:00:00Z,26.4645,-82.1044,1.719,6.85,1111122 
SCCF RECON,ioos:station:SCCF:56:1,2017-05-01T19:00:00Z,26.4645,-82.1044,1.824,8.29,1111122 
SCCF RECON,ioos:station:SCCF:56:1,2017-05-01T20:00:00Z,26.4645,-82.1044,1.869,8.03,1111122 
SCCF RECON,ioos:station:SCCF:56:1,2017-05-01T21:00:00Z,26.4645,-82.1044,1.88,7.65,1111122 
SCCF RECON,ioos:station:SCCF:56:1,2017-05-01T22:00:00Z,26.4645,-82.1044,1.849,7.47,1111122 
SCCF RECON,ioos:station:SCCF:56:1,2017-05-01T23:00:00Z,26.4645,-82.1044,1.784,6.96,1111122 
SCCF RECON,ioos:station:SCCF:56:1,2017-05-02T00:00:00Z,26.4645,-82.1044,1.7,6.69,1111122 
SCCF RECON,ioos:station:SCCF:56:1,2017-05-02T01:00:00Z,26.4645,-82.1044,1.563,5.82,1111122 
SCCF RECON,ioos:station:SCCF:56:1,2017-05-02T02:00:00Z,26.4645,-82.1044,1.43,4.97,1111122 
SCCF RECON,ioos:station:SCCF:56:1,2017-05-02T03:00:00Z,26.4645,-82.1044,1.34,4.41,1111122 
SCCF RECON,ioos:station:SCCF:56:1,2017-05-02T04:00:00Z,26.4645,-82.1044,1.264,3.9,1111122 
SCCF RECON,ioos:station:SCCF:56:1,2017-05-02T05:00:00Z,26.4645,-82.1044,1.209,3.6,1111122 
SCCF RECON,ioos:station:SCCF:56:1,2017-05-02T06:00:00Z,26.4645,-82.1044,1.2,3.39,1111122 
SCCF RECON,ioos:station:SCCF:56:1,2017-05-02T07:00:00Z,26.4645,-82.1044,1.315,3.46,1111122 
SCCF RECON,ioos:station:SCCF:56:1,2017-05-02T08:00:00Z,26.4645,-82.1044,1.43,2.37,1111122 
SCCF RECON,ioos:station:SCCF:56:1,2017-05-02T09:00:00Z,26.4645,-82.1044,1.56,2.75,1111122 
SCCF RECON,ioos:station:SCCF:56:1,2017-05-02T10:00:00Z,26.4645,-82.1044,1.668,3.77,1111122 
SCCF RECON,ioos:station:SCCF:56:1,2017-05-02T11:00:00Z,26.4645,-82.1044,1.702,4.8,1111122 
SCCF RECON,ioos:station:SCCF:56:1,2017-05-02T12:00:00Z,26.4645,-82.1044,1.76,4.88,1111122 
SCCF RECON,ioos:station:SCCF:56:1,2017-05-02T13:00:00Z,26.4645,-82.1044,1.74,4.47,1111122 
SCCF RECON,ioos:station:SCCF:56:1,2017-05-02T14:00:00Z,26.4645,-82.1044,1.7,4.52,1111122 
SCCF RECON,ioos:station:SCCF:56:1,2017-05-02T15:00:00Z,26.4645,-82.1044,1.67,4.12,1111122 
SCCF RECON,ioos:station:SCCF:56:1,2017-05-02T16:00:00Z,26.4645,-82.1044,1.65,4.44,1111122 
SCCF RECON,ioos:station:SCCF:56:1,2017-05-02T17:00:00Z,26.4645,-82.1044,1.63,4.43,1111122 
SCCF RECON,ioos:station:SCCF:56:1,2017-05-02T18:00:00Z,26.4645,-82.1044,1.65,5.74,1111122 
SCCF RECON,ioos:station:SCCF:56:1,2017-05-02T19:00:00Z,26.4645,-82.1044,1.671,10.15,1111122 
SCCF RECON,ioos:station:SCCF:56:1,2017-05-02T20:00:00Z,26.4645,-82.1044,1.711,9.98,1111122 
SCCF RECON,ioos:station:SCCF:56:1,2017-05-02T21:00:00Z,26.4645,-82.1044,1.76,9.88,1111122 
SCCF RECON,ioos:station:SCCF:56:1,2017-05-02T22:00:00Z,26.4645,-82.1044,1.79,9.51,1111122 
SCCF RECON,ioos:station:SCCF:56:1,2017-05-02T23:00:00Z,26.4645,-82.1044,1.79,9.72,1111122 
SCCF RECON,ioos:station:SCCF:56:1,2017-05-03T00:00:00Z,26.4645,-82.1044,1.77,9.32,1111122 
SCCF RECON,ioos:station:SCCF:56:1,2017-05-03T01:00:00Z,26.4645,-82.1044,1.72,8.21,1111122 
SCCF RECON,ioos:station:SCCF:56:1,2017-05-03T02:00:00Z,26.4645,-82.1044,1.64,7.03,1111122 
SCCF RECON,ioos:station:SCCF:56:1,2017-05-03T03:00:00Z,26.4645,-82.1044,1.51,5.61,1111122 
SCCF RECON,ioos:station:SCCF:56:1,2017-05-03T04:00:00Z,26.4645,-82.1044,1.383,4.11,1111122 
SCCF RECON,ioos:station:SCCF:56:1,2017-05-03T05:00:00Z,26.4645,-82.1044,1.27,3.74,1111122 
SCCF RECON,ioos:station:SCCF:56:1,2017-05-03T06:00:00Z,26.4645,-82.1044,1.18,3.34,1111122 
SCCF RECON,ioos:station:SCCF:56:1,2017-05-03T07:00:00Z,26.4645,-82.1044,1.19,3.16,1111122 
SCCF RECON,ioos:station:SCCF:56:1,2017-05-03T08:00:00Z,26.4645,-82.1044,1.268,3.61,1111122 
SCCF RECON,ioos:station:SCCF:56:1,2017-05-03T09:00:00Z,26.4645,-82.1044,1.41,5.45,1111122 
SCCF RECON,ioos:station:SCCF:56:1,2017-05-03T10:00:00Z,26.4645,-82.1044,1.51,5.14,1111122 
SCCF RECON,ioos:station:SCCF:56:1,2017-05-03T11:00:00Z,26.4645,-82.1044,1.587,4.42,1111122 
SCCF RECON,ioos:station:SCCF:56:1,2017-05-03T12:00:00Z,26.4645,-82.1044,1.67,5.03,1111122 
SCCF RECON,ioos:station:SCCF:56:1,2017-05-03T13:00:00Z,26.4645,-82.1044,1.72,4.85,1111122 
SCCF RECON,ioos:station:SCCF:56:1,2017-05-03T14:00:00Z,26.4645,-82.1044,1.722,5.3,1111122 
SCCF RECON,ioos:station:SCCF:56:1,2017-05-03T15:00:00Z,26.4645,-82.1044,1.686,5.28,1111122 
SCCF RECON,ioos:station:SCCF:56:1,2017-05-03T16:00:00Z,26.4645,-82.1044,1.658,5.0,1111122 
SCCF RECON,ioos:station:SCCF:56:1,2017-05-03T17:00:00Z,26.4645,-82.1044,1.57,4.55,1111122 
SCCF RECON,ioos:station:SCCF:56:1,2017-05-03T18:00:00Z,26.4645,-82.1044,1.51,5.02,1111122 
SCCF RECON,ioos:station:SCCF:56:1,2017-05-03T19:00:00Z,26.4645,-82.1044,1.47,4.69,1111122 
SCCF RECON,ioos:station:SCCF:56:1,2017-05-03T20:00:00Z,26.4645,-82.1044,1.5,5.62,1111122 
SCCF RECON,ioos:station:SCCF:56:1,2017-05-03T21:00:00Z,26.4645,-82.1044,1.677,10.11,1111122 
SCCF RECON,ioos:station:SCCF:56:1,2017-05-03T22:00:00Z,26.4645,-82.1044,1.707,9.31,1111122 
SCCF RECON,ioos:station:SCCF:56:1,2017-05-03T23:00:00Z,26.4645,-82.1044,1.72,8.38,1111122 
SCCF RECON,ioos:station:SCCF:56:1,2017-05-04T00:00:00Z,26.4645,-82.1044,1.749,7.7,1111122 
SCCF RECON,ioos:station:SCCF:56:1,2017-05-04T01:00:00Z,26.4645,-82.1044,1.753,7.52,1111122 
SCCF RECON,ioos:station:SCCF:56:1,2017-05-04T02:00:00Z,26.4645,-82.1044,1.75,6.84,1111122 
SCCF RECON,ioos:station:SCCF:56:1,2017-05-04T03:00:00Z,26.4645,-82.1044,1.7,7.35,1111122 
SCCF RECON,ioos:station:SCCF:56:1,2017-05-04T04:00:00Z,26.4645,-82.1044,1.597,6.87,1111122 
SCCF RECON,ioos:station:SCCF:56:1,2017-05-04T05:00:00Z,26.4645,-82.1044,2.061,5.6,1111122 
SCCF RECON,ioos:station:SCCF:56:1,2017-05-04T06:00:00Z,26.4645,-82.1044,1.384,4.39,1111122 
SCCF RECON,ioos:station:SCCF:56:1,2017-05-04T07:00:00Z,26.4645,-82.1044,1.26,3.43,1111122 
SCCF RECON,ioos:station:SCCF:56:1,2017-05-04T08:00:00Z,26.4645,-82.1044,1.247,2.88,1111122 
SCCF RECON,ioos:station:SCCF:56:1,2017-05-04T09:00:00Z,26.4645,-82.1044,1.32,3.23,1111122 
SCCF RECON,ioos:station:SCCF:56:1,2017-05-04T10:00:00Z,26.4645,-82.1044,1.433,2.73,1111122 
SCCF RECON,ioos:station:SCCF:56:1,2017-05-04T11:00:00Z,26.4645,-82.1044,1.541,2.78,1111122 
SCCF RECON,ioos:station:SCCF:56:1,2017-05-04T12:00:00Z,26.4645,-82.1044,1.739,5.22,1111122 
SCCF RECON,ioos:station:SCCF:56:1,2017-05-04T13:00:00Z,26.4645,-82.1044,1.75,5.08,1111122 
SCCF RECON,ioos:station:SCCF:56:1,2017-05-04T14:00:00Z,26.4645,-82.1044,1.78,5.6,1111122 
SCCF RECON,ioos:station:SCCF:56:1,2017-05-04T15:00:00Z,26.4645,-82.1044,1.84,6.2,1111122 
SCCF RECON,ioos:station:SCCF:56:1,2017-05-09T17:00:00Z,26.4645,-82.1044,1.0,-9999.0,1111122 
SCCF RECON,ioos:station:SCCF:56:1,2017-05-09T18:00:00Z,26.4645,-82.1044,1.0,-9999.0,1111122 
SCCF RECON,ioos:station:SCCF:56:1,2017-05-09T19:00:00Z,26.4645,-82.1044,1.67,7.78,1111122 
SCCF RECON,ioos:station:SCCF:56:1,2017-05-09T20:00:00Z,26.4645,-82.1044,1.53,7.32,1111122 
SCCF RECON,ioos:station:SCCF:56:1,2017-05-09T21:00:00Z,26.4645,-82.1044,1.41,6.88,1111122 
SCCF RECON,ioos:station:SCCF:56:1,2017-05-09T22:00:00Z,26.4645,-82.1044,1.3,7.47,1111122 
SCCF RECON,ioos:station:SCCF:56:1,2017-05-09T23:00:00Z,26.4645,-82.1044,1.19,7.43,1111122 
SCCF RECON,ioos:station:SCCF:56:1,2017-05-10T00:00:00Z,26.4645,-82.1044,1.11,7.42,1111122 
SCCF RECON,ioos:station:SCCF:56:1,2017-05-10T01:00:00Z,26.4645,-82.1044,1.13,7.52,1111122 
SCCF RECON,ioos:station:SCCF:56:1,2017-05-10T02:00:00Z,26.4645,-82.1044,1.281,6.65,1111122 
SCCF RECON,ioos:station:SCCF:56:1,2017-05-10T03:00:00Z,26.4645,-82.1044,1.449,6.55,1111122 
SCCF RECON,ioos:station:SCCF:56:1,2017-05-10T04:00:00Z,26.4645,-82.1044,1.57,6.04,1111122 
SCCF RECON,ioos:station:SCCF:56:1,2017-05-10T05:00:00Z,26.4645,-82.1044,1.668,5.68,1111122 
SCCF RECON,ioos:station:SCCF:56:1,2017-05-10T06:00:00Z,26.4645,-82.1044,1.71,6.66,1111122 
SCCF RECON,ioos:station:SCCF:56:1,2017-05-10T07:00:00Z,26.4645,-82.1044,1.676,7.08,1111122 
SCCF RECON,ioos:station:SCCF:56:1,2017-05-10T08:00:00Z,26.4645,-82.1044,1.57,7.31,1111122 
SCCF RECON,ioos:station:SCCF:56:1,2017-05-10T09:00:00Z,26.4645,-82.1044,1.48,6.31,1111122 
SCCF RECON,ioos:station:SCCF:56:1,2017-05-10T10:00:00Z,26.4645,-82.1044,1.42,5.47,1111122 
SCCF RECON,ioos:station:SCCF:56:1,2017-05-10T11:00:00Z,26.4645,-82.1044,1.37,4.64,1111122 
SCCF RECON,ioos:station:SCCF:56:1,2017-05-10T12:00:00Z,26.4645,-82.1044,1.342,3.98,1111122 
SCCF RECON,ioos:station:SCCF:56:1,2017-05-10T13:00:00Z,26.4645,-82.1044,1.42,4.37,1111122 
SCCF RECON,ioos:station:SCCF:56:1,2017-05-10T14:00:00Z,26.4645,-82.1044,1.57,4.89,1111122 
SCCF RECON,ioos:station:SCCF:56:1,2017-05-10T15:00:00Z,26.4645,-82.1044,1.7,6.12,1111122 
SCCF RECON,ioos:station:SCCF:56:1,2017-05-10T16:00:00Z,26.4645,-82.1044,1.8,7.45,1111122 
SCCF RECON,ioos:station:SCCF:56:1,2017-05-10T17:00:00Z,26.4645,-82.1044,1.86,7.95,1111122 
SCCF RECON,ioos:station:SCCF:56:1,2017-05-10T18:00:00Z,26.4645,-82.1044,1.86,8.0,1111122 
SCCF RECON,ioos:station:SCCF:56:1,2017-05-10T19:00:00Z,26.4645,-82.1044,1.76,7.97,1111122 
SCCF RECON,ioos:station:SCCF:56:1,2017-05-10T20:00:00Z,26.4645,-82.1044,1.616,7.45,1111122 
SCCF RECON,ioos:station:SCCF:56:1,2017-05-10T21:00:00Z,26.4645,-82.1044,1.48,7.18,1111122 
SCCF RECON,ioos:station:SCCF:56:1,2017-05-10T22:00:00Z,26.4645,-82.1044,1.369,7.02,1111122 
SCCF RECON,ioos:station:SCCF:56:1,2017-05-10T23:00:00Z,26.4645,-82.1044,1.26,7.36,1111122 
SCCF RECON,ioos:station:SCCF:56:1,2017-05-11T00:00:00Z,26.4645,-82.1044,1.17,7.42,1111122 
SCCF RECON,ioos:station:SCCF:56:1,2017-05-11T01:00:00Z,26.4645,-82.1044,1.14,6.69,1111122 
SCCF RECON,ioos:station:SCCF:56:1,2017-05-11T02:00:00Z,26.4645,-82.1044,1.23,6.92,1111122 
SCCF RECON,ioos:station:SCCF:56:1,2017-05-11T03:00:00Z,26.4645,-82.1044,1.401,6.62,1111122 
SCCF RECON,ioos:station:SCCF:56:1,2017-05-11T04:00:00Z,26.4645,-82.1044,1.55,5.58,1111122 
SCCF RECON,ioos:station:SCCF:56:1,2017-05-11T05:00:00Z,26.4645,-82.1044,1.645,6.33,1111122 
SCCF RECON,ioos:station:SCCF:56:1,2017-05-11T06:00:00Z,26.4645,-82.1044,1.73,6.11,1111122 
SCCF RECON,ioos:station:SCCF:56:1,2017-05-11T07:00:00Z,26.4645,-82.1044,1.74,6.29,1111122 
SCCF RECON,ioos:station:SCCF:56:1,2017-05-11T08:00:00Z,26.4645,-82.1044,1.684,6.27,1111122 
SCCF RECON,ioos:station:SCCF:56:1,2017-05-11T09:00:00Z,26.4645,-82.1044,1.589,6.45,1111122 
SCCF RECON,ioos:station:SCCF:56:1,2017-05-11T10:00:00Z,26.4645,-82.1044,1.51,5.81,1111122 
SCCF RECON,ioos:station:SCCF:56:1,2017-05-11T11:00:00Z,26.4645,-82.1044,1.46,5.05,1111122 
SCCF RECON,ioos:station:SCCF:56:1,2017-05-11T12:00:00Z,26.4645,-82.1044,1.42,4.19,1111122 
SCCF RECON,ioos:station:SCCF:56:1,2017-05-11T13:00:00Z,26.4645,-82.1044,1.43,3.95,1111122 
SCCF RECON,ioos:station:SCCF:56:1,2017-05-11T14:00:00Z,26.4645,-82.1044,1.51,4.87,1111122 
SCCF RECON,ioos:station:SCCF:56:1,2017-05-11T15:00:00Z,26.4645,-82.1044,1.65,5.75,1111122 
SCCF RECON,ioos:station:SCCF:56:1,2017-05-11T16:00:00Z,26.4645,-82.1044,1.77,7.2,1111122 
SCCF RECON,ioos:station:SCCF:56:1,2017-05-11T17:00:00Z,26.4645,-82.1044,1.85,7.74,1111122 
SCCF RECON,ioos:station:SCCF:56:1,2017-05-11T18:00:00Z,26.4645,-82.1044,1.85,7.9,1111122 
SCCF RECON,ioos:station:SCCF:56:1,2017-05-11T19:00:00Z,26.4645,-82.1044,1.76,7.84,1111122 
SCCF RECON,ioos:station:SCCF:56:1,2017-05-11T20:00:00Z,26.4645,-82.1044,1.63,7.3,1111122 
SCCF RECON,ioos:station:SCCF:56:1,2017-05-11T21:00:00Z,26.4645,-82.1044,1.49,7.2,1111122 
SCCF RECON,ioos:station:SCCF:56:1,2017-05-11T22:00:00Z,26.4645,-82.1044,1.371,7.02,1111122 
SCCF RECON,ioos:station:SCCF:56:1,2017-05-11T23:00:00Z,26.4645,-82.1044,1.26,6.99,1111122 
SCCF RECON,ioos:station:SCCF:56:1,2017-05-12T00:00:00Z,26.4645,-82.1044,1.17,7.17,1111122 
SCCF RECON,ioos:station:SCCF:56:1,2017-05-12T01:00:00Z,26.4645,-82.1044,1.091,6.86,1111122 
SCCF RECON,ioos:station:SCCF:56:1,2017-05-12T02:00:00Z,26.4645,-82.1044,1.09,6.59,1111122 
SCCF RECON,ioos:station:SCCF:56:1,2017-05-12T03:00:00Z,26.4645,-82.1044,1.21,5.92,1111122 
SCCF RECON,ioos:station:SCCF:56:1,2017-05-12T04:00:00Z,26.4645,-82.1044,1.348,6.15,1111122 
SCCF RECON,ioos:station:SCCF:56:1,2017-05-12T05:00:00Z,26.4645,-82.1044,1.47,5.24,1111122 
SCCF RECON,ioos:station:SCCF:56:1,2017-05-12T06:00:00Z,26.4645,-82.1044,1.58,5.48,1111122 
SCCF RECON,ioos:station:SCCF:56:1,2017-05-12T07:00:00Z,26.4645,-82.1044,1.65,5.75,1111122 
SCCF RECON,ioos:station:SCCF:56:1,2017-05-12T08:00:00Z,26.4645,-82.1044,1.66,5.66,1111122 
SCCF RECON,ioos:station:SCCF:56:1,2017-05-12T09:00:00Z,26.4645,-82.1044,1.61,5.73,1111122 
SCCF RECON,ioos:station:SCCF:56:1,2017-05-12T10:00:00Z,26.4645,-82.1044,1.55,5.87,1111122 
SCCF RECON,ioos:station:SCCF:56:1,2017-05-12T11:00:00Z,26.4645,-82.1044,1.5,5.54,1111122 
SCCF RECON,ioos:station:SCCF:56:1,2017-05-12T12:00:00Z,26.4645,-82.1044,1.47,5.05,1111122 
SCCF RECON,ioos:station:SCCF:56:1,2017-05-12T13:00:00Z,26.4645,-82.1044,1.47,4.7,1111122 
SCCF RECON,ioos:station:SCCF:56:1,2017-05-12T14:00:00Z,26.4645,-82.1044,1.53,4.95,1111122 
SCCF RECON,ioos:station:SCCF:56:1,2017-05-12T15:00:00Z,26.4645,-82.1044,1.658,5.53,1111122 
SCCF RECON,ioos:station:SCCF:56:1,2017-05-12T16:00:00Z,26.4645,-82.1044,1.78,7.22,1111122 
SCCF RECON,ioos:station:SCCF:56:1,2017-05-12T17:00:00Z,26.4645,-82.1044,1.86,7.0,1111122 
SCCF RECON,ioos:station:SCCF:56:1,2017-05-12T18:00:00Z,26.4645,-82.1044,1.9,7.32,1111122 
SCCF RECON,ioos:station:SCCF:56:1,2017-05-12T19:00:00Z,26.4645,-82.1044,1.873,7.46,1111122 
SCCF RECON,ioos:station:SCCF:56:1,2017-05-12T20:00:00Z,26.4645,-82.1044,1.779,7.06,1111122 
SCCF RECON,ioos:station:SCCF:56:1,2017-05-12T21:00:00Z,26.4645,-82.1044,1.63,7.11,1111122 
SCCF RECON,ioos:station:SCCF:56:1,2017-05-12T22:00:00Z,26.4645,-82.1044,1.496,6.82,1111122 
SCCF RECON,ioos:station:SCCF:56:1,2017-05-12T23:00:00Z,26.4645,-82.1044,1.374,6.56,1111122 
SCCF RECON,ioos:station:SCCF:56:1,2017-05-13T00:00:00Z,26.4645,-82.1044,1.26,6.43,1111122 
SCCF RECON,ioos:station:SCCF:56:1,2017-05-13T01:00:00Z,26.4645,-82.1044,1.16,6.23,1111122 
SCCF RECON,ioos:station:SCCF:56:1,2017-05-13T02:00:00Z,26.4645,-82.1044,1.1,5.73,1111122 
SCCF RECON,ioos:station:SCCF:56:1,2017-05-13T03:00:00Z,26.4645,-82.1044,1.15,5.57,1111122 
SCCF RECON,ioos:station:SCCF:56:1,2017-05-13T04:00:00Z,26.4645,-82.1044,1.32,5.04,1111122 
SCCF RECON,ioos:station:SCCF:56:1,2017-05-13T05:00:00Z,26.4645,-82.1044,1.47,2.65,1111122 
SCCF RECON,ioos:station:SCCF:56:1,2017-05-13T06:00:00Z,26.4645,-82.1044,1.58,4.84,1111122 
SCCF RECON,ioos:station:SCCF:56:1,2017-05-13T07:00:00Z,26.4645,-82.1044,1.67,5.17,1111122 
SCCF RECON,ioos:station:SCCF:56:1,2017-05-13T08:00:00Z,26.4645,-82.1044,1.72,5.07,1111122 
SCCF RECON,ioos:station:SCCF:56:1,2017-05-13T09:00:00Z,26.4645,-82.1044,1.69,6.03,1111122 
SCCF RECON,ioos:station:SCCF:56:1,2017-05-13T10:00:00Z,26.4645,-82.1044,1.63,5.29,1111122 
SCCF RECON,ioos:station:SCCF:56:1,2017-05-13T11:00:00Z,26.4645,-82.1044,1.58,5.23,1111122 
SCCF RECON,ioos:station:SCCF:56:1,2017-05-13T12:00:00Z,26.4645,-82.1044,1.54,4.55,1111122 
SCCF RECON,ioos:station:SCCF:56:1,2017-05-13T13:00:00Z,26.4645,-82.1044,1.54,4.61,1111122 
SCCF RECON,ioos:station:SCCF:56:1,2017-05-13T14:00:00Z,26.4645,-82.1044,1.59,4.7,1111122 
SCCF RECON,ioos:station:SCCF:56:1,2017-05-13T15:00:00Z,26.4645,-82.1044,1.67,5.38,1111122 
SCCF RECON,ioos:station:SCCF:56:1,2017-05-13T16:00:00Z,26.4645,-82.1044,1.77,7.3,1111122 
SCCF RECON,ioos:station:SCCF:56:1,2017-05-13T17:00:00Z,26.4645,-82.1044,1.852,7.47,1111122 
SCCF RECON,ioos:station:SCCF:56:1,2017-05-13T18:00:00Z,26.4645,-82.1044,1.899,7.36,1111122 
SCCF RECON,ioos:station:SCCF:56:1,2017-05-13T19:00:00Z,26.4645,-82.1044,1.89,7.49,1111122 
SCCF RECON,ioos:station:SCCF:56:1,2017-05-13T20:00:00Z,26.4645,-82.1044,1.859,7.44,1111122 
SCCF RECON,ioos:station:SCCF:56:1,2017-05-13T21:00:00Z,26.4645,-82.1044,1.779,7.09,1111122 
SCCF RECON,ioos:station:SCCF:56:1,2017-05-13T22:00:00Z,26.4645,-82.1044,1.65,7.2,1111122 
SCCF RECON,ioos:station:SCCF:56:1,2017-05-13T23:00:00Z,26.4645,-82.1044,1.504,6.44,1111122 
SCCF RECON,ioos:station:SCCF:56:1,2017-05-14T00:00:00Z,26.4645,-82.1044,1.4,5.75,1111122 
SCCF RECON,ioos:station:SCCF:56:1,2017-05-14T01:00:00Z,26.4645,-82.1044,1.28,5.27,1111122 
SCCF RECON,ioos:station:SCCF:56:1,2017-05-14T02:00:00Z,26.4645,-82.1044,1.19,4.84,1111122 
SCCF RECON,ioos:station:SCCF:56:1,2017-05-14T03:00:00Z,26.4645,-82.1044,1.174,4.76,1111122 
SCCF RECON,ioos:station:SCCF:56:1,2017-05-14T04:00:00Z,26.4645,-82.1044,1.28,4.55,1111122 
SCCF RECON,ioos:station:SCCF:56:1,2017-05-14T05:00:00Z,26.4645,-82.1044,1.424,3.45,1111122 
SCCF RECON,ioos:station:SCCF:56:1,2017-05-14T06:00:00Z,26.4645,-82.1044,1.56,4.65,1111122 
SCCF RECON,ioos:station:SCCF:56:1,2017-05-14T07:00:00Z,26.4645,-82.1044,1.656,4.95,1111122 
SCCF RECON,ioos:station:SCCF:56:1,2017-05-14T08:00:00Z,26.4645,-82.1044,1.71,4.94,1111122 
SCCF RECON,ioos:station:SCCF:56:1,2017-05-14T09:00:00Z,26.4645,-82.1044,1.712,4.73,1111122 
SCCF RECON,ioos:station:SCCF:56:1,2017-05-14T10:00:00Z,26.4645,-82.1044,1.68,4.94,1111122 
SCCF RECON,ioos:station:SCCF:56:1,2017-05-14T11:00:00Z,26.4645,-82.1044,1.6,4.71,1111122 
SCCF RECON,ioos:station:SCCF:56:1,2017-05-14T12:00:00Z,26.4645,-82.1044,1.56,4.22,1111122 
SCCF RECON,ioos:station:SCCF:56:1,2017-05-14T13:00:00Z,26.4645,-82.1044,1.56,4.13,1111122 
SCCF RECON,ioos:station:SCCF:56:1,2017-05-14T14:00:00Z,26.4645,-82.1044,1.55,3.99,1111122 
SCCF RECON,ioos:station:SCCF:56:1,2017-05-14T15:00:00Z,26.4645,-82.1044,1.566,3.82,1111122 
SCCF RECON,ioos:station:SCCF:56:1,2017-05-14T16:00:00Z,26.4645,-82.1044,1.64,5.95,1111122 
SCCF RECON,ioos:station:SCCF:56:1,2017-05-14T17:00:00Z,26.4645,-82.1044,1.72,7.61,1111122 
SCCF RECON,ioos:station:SCCF:56:1,2017-05-14T18:00:00Z,26.4645,-82.1044,1.775,7.95,1111122 
SCCF RECON,ioos:station:SCCF:56:1,2017-05-14T19:00:00Z,26.4645,-82.1044,1.81,8.42,1111122 
SCCF RECON,ioos:station:SCCF:56:1,2017-05-14T20:00:00Z,26.4645,-82.1044,1.79,8.59,1111122 
SCCF RECON,ioos:station:SCCF:56:1,2017-05-14T21:00:00Z,26.4645,-82.1044,1.684,8.33,1111122 
SCCF RECON,ioos:station:SCCF:56:1,2017-05-14T22:00:00Z,26.4645,-82.1044,1.551,7.16,1111122 
SCCF RECON,ioos:station:SCCF:56:1,2017-05-14T23:00:00Z,26.4645,-82.1044,1.432,5.72,1111122 
SCCF RECON,ioos:station:SCCF:56:1,2017-05-15T00:00:00Z,26.4645,-82.1044,1.325,5.48,1111122 
SCCF RECON,ioos:station:SCCF:56:1,2017-05-15T01:00:00Z,26.4645,-82.1044,1.22,5.63,1111122 
SCCF RECON,ioos:station:SCCF:56:1,2017-05-15T02:00:00Z,26.4645,-82.1044,1.13,5.18,1111122 
SCCF RECON,ioos:station:SCCF:56:1,2017-05-15T03:00:00Z,26.4645,-82.1044,1.086,5.06,1111122 
SCCF RECON,ioos:station:SCCF:56:1,2017-05-15T04:00:00Z,26.4645,-82.1044,1.12,4.97,1111122 
SCCF RECON,ioos:station:SCCF:56:1,2017-05-15T05:00:00Z,26.4645,-82.1044,1.232,4.05,1111122 
SCCF RECON,ioos:station:SCCF:56:1,2017-05-15T06:00:00Z,26.4645,-82.1044,1.361,5.1,1111122 
SCCF RECON,ioos:station:SCCF:56:1,2017-05-15T07:00:00Z,26.4645,-82.1044,1.48,5.33,1111122 
SCCF RECON,ioos:station:SCCF:56:1,2017-05-15T08:00:00Z,26.4645,-82.1044,1.58,5.21,1111122 
SCCF RECON,ioos:station:SCCF:56:1,2017-05-15T09:00:00Z,26.4645,-82.1044,1.637,5.34,1111122 
SCCF RECON,ioos:station:SCCF:56:1,2017-05-15T10:00:00Z,26.4645,-82.1044,1.64,5.37,1111122 
SCCF RECON,ioos:station:SCCF:56:1,2017-05-15T11:00:00Z,26.4645,-82.1044,1.6,4.64,1111122 
SCCF RECON,ioos:station:SCCF:56:1,2017-05-15T12:00:00Z,26.4645,-82.1044,1.55,4.84,1111122 
SCCF RECON,ioos:station:SCCF:56:1,2017-05-15T13:00:00Z,26.4645,-82.1044,1.52,4.64,1111122 
SCCF RECON,ioos:station:SCCF:56:1,2017-05-15T14:00:00Z,26.4645,-82.1044,1.51,4.45,1111122 
SCCF RECON,ioos:station:SCCF:56:1,2017-05-15T15:00:00Z,26.4645,-82.1044,1.546,4.59,1111122 
SCCF RECON,ioos:station:SCCF:56:1,2017-05-15T16:00:00Z,26.4645,-82.1044,1.617,6.42,1111122 
SCCF RECON,ioos:station:SCCF:56:1,2017-05-15T17:00:00Z,26.4645,-82.1044,1.697,7.62,1111122 
SCCF RECON,ioos:station:SCCF:56:1,2017-05-15T18:00:00Z,26.4645,-82.1044,1.76,8.72,1111122 
SCCF RECON,ioos:station:SCCF:56:1,2017-05-15T19:00:00Z,26.4645,-82.1044,1.79,9.54,1111122 
SCCF RECON,ioos:station:SCCF:56:1,2017-05-15T20:00:00Z,26.4645,-82.1044,1.801,9.45,1111122 
SCCF RECON,ioos:station:SCCF:56:1,2017-05-15T21:00:00Z,26.4645,-82.1044,1.75,9.33,1111122 
SCCF RECON,ioos:station:SCCF:56:1,2017-05-15T22:00:00Z,26.4645,-82.1044,1.66,8.49,1111122 
SCCF RECON,ioos:station:SCCF:56:1,2017-05-15T23:00:00Z,26.4645,-82.1044,1.55,7.47,1111122 
SCCF RECON,ioos:station:SCCF:56:1,2017-05-16T00:00:00Z,26.4645,-82.1044,1.45,6.01,1111122 
SCCF RECON,ioos:station:SCCF:56:1,2017-05-16T01:00:00Z,26.4645,-82.1044,1.35,5.38,1111122 
SCCF RECON,ioos:station:SCCF:56:1,2017-05-16T02:00:00Z,26.4645,-82.1044,1.25,4.83,1111122 
SCCF RECON,ioos:station:SCCF:56:1,2017-05-16T03:00:00Z,26.4645,-82.1044,1.173,5.15,1111122 
SCCF RECON,ioos:station:SCCF:56:1,2017-05-16T04:00:00Z,26.4645,-82.1044,1.136,4.76,1111122 
SCCF RECON,ioos:station:SCCF:56:1,2017-05-16T05:00:00Z,26.4645,-82.1044,1.199,4.65,1111122 
SCCF RECON,ioos:station:SCCF:56:1,2017-05-16T06:00:00Z,26.4645,-82.1044,1.31,5.82,1111122 
SCCF RECON,ioos:station:SCCF:56:1,2017-05-16T07:00:00Z,26.4645,-82.1044,1.4,5.79,1111122 
SCCF RECON,ioos:station:SCCF:56:1,2017-05-16T08:00:00Z,26.4645,-82.1044,1.5,5.94,1111122 
SCCF RECON,ioos:station:SCCF:56:1,2017-05-16T09:00:00Z,26.4645,-82.1044,1.58,5.69,1111122 
SCCF RECON,ioos:station:SCCF:56:1,2017-05-16T10:00:00Z,26.4645,-82.1044,1.64,5.34,1111122 
SCCF RECON,ioos:station:SCCF:56:1,2017-05-16T11:00:00Z,26.4645,-82.1044,1.679,5.01,1111122 
SCCF RECON,ioos:station:SCCF:56:1,2017-05-16T12:00:00Z,26.4645,-82.1044,1.66,4.78,1111122 
SCCF RECON,ioos:station:SCCF:56:1,2017-05-16T13:00:00Z,26.4645,-82.1044,1.611,4.63,1111122 
SCCF RECON,ioos:station:SCCF:56:1,2017-05-16T14:00:00Z,26.4645,-82.1044,1.58,5.04,1111122 
SCCF RECON,ioos:station:SCCF:56:1,2017-05-16T15:00:00Z,26.4645,-82.1044,1.57,4.87,1111122 
SCCF RECON,ioos:station:SCCF:56:1,2017-05-16T16:00:00Z,26.4645,-82.1044,1.62,7.08,1111122 
SCCF RECON,ioos:station:SCCF:56:1,2017-05-16T17:00:00Z,26.4645,-82.1044,1.671,8.85,1111122 
SCCF RECON,ioos:station:SCCF:56:1,2017-05-16T18:00:00Z,26.4645,-82.1044,1.71,8.59,1111122 
SCCF RECON,ioos:station:SCCF:56:1,2017-05-16T19:00:00Z,26.4645,-82.1044,1.76,8.61,1111122 
SCCF RECON,ioos:station:SCCF:56:1,2017-05-16T20:00:00Z,26.4645,-82.1044,1.8,9.16,1111122 
SCCF RECON,ioos:station:SCCF:56:1,2017-05-16T21:00:00Z,26.4645,-82.1044,1.78,8.02,1111122 
SCCF RECON,ioos:station:SCCF:56:1,2017-05-16T22:00:00Z,26.4645,-82.1044,1.74,8.02,1111122 